Regional Weather Roundup
Issued by NWS Wakefield, VA

Home | Current Version | Previous Version | Text Only | Print | Product List | Glossary Off
Versions: 1 2 3 4 5 6 7 8 9 10 11 12 13 14 15 16 17 18 19 20 21 22 23 24 25 26 27 28 29 30 31 32 33 34 35 36 37 38 39 40 41 42 43 44 45 46 47 48 49 50

000
ASUS41 KAKQ 260116
RWRAKQ

REGIONAL WEATHER ROUNDUP
NATIONAL WEATHER SERVICE WAKEFIELD VA
900 PM EDT MON SEP 25 2017

Note: "fair" indicates few or no clouds below 12,000 feet with no
significant weather and/or obstructions to visibility. * = Denotes
station may not report precipitation (e.g., rain,snow,etc.),
thunder or fog.

VAZ042-051-052>054-056-260200-
NORTHERN VIRGINIA

CITY           SKY/WX    TMP DP  RH WIND       PRES   REMARKS
WASH NATIONAL  MOCLDY    80  70  71 SE7       29.99S
DULLES         MOCLDY    76  68  76 CALM      30.00R
FORT BELVOIR   PTCLDY    72  68  88 CALM      29.99R
QUANTICO       PTCLDY    79  72  79 CALM      30.00R
FREDERICKSBRG* MOCLDY    79  68  70 NE6       29.98R
STAFFORD*      CLOUDY    74  69  81 E5        30.03R
WARRENTON      PTCLDY    70  63  79 CALM      29.99S
CULPEPER*      CLOUDY    75  68  79 N3        30.00S
MANASSAS*      CLOUDY    73  69  87 CALM      30.00R
LEESBURG*      PTCLDY    79  70  73 CALM      30.01S
WINCHESTER     MOCLDY    70  64  83 CALM      30.02S
FRONT ROYAL*   PTCLDY    72  68  88 CALM      30.01R
LURAY*         CLOUDY    73  68  83 CALM      30.02S
$$

VAZ048-049-060>072-079>083-260200-
CENTRAL AND SOUTH CENTRAL VIRGINIA

CITY           SKY/WX    TMP DP  RH WIND       PRES   REMARKS
RICHMOND       PTCLDY    73  68  84 E6        29.98R
CHESTERFIELD*  NOT AVBL
PETERSBURG*    PTCLDY    72  65  78 E6        29.98R
HANOVER        CLEAR     70  67  90 CALM      30.00R
TAPPAHANNOCK*  CLEAR     73  70  91 E3        30.00R
QUINTON*       FAIR      72  71  97 E3        29.98R
CHARLOTTSVILLE PTCLDY    76  68  76 N3        30.00R
GORDONSVILLE*  CLOUDY    71  70  98 CALM      30.00R
ORANGE*        CLOUDY    72  68  88 CALM      30.00R
LOUISA*          N/A     70  66  88 CALM      30.00R
BUMPASS*       FAIR      70  69  97 CALM      30.00R
FARMVILLE*     PTCLDY    76  68  77 N3        29.98R
CREWE*         FAIR      70  70 100 CALM      29.98R
FORT PICKETT*  FAIR      71  67  87 NE3       29.98R
CHASE CITY*    FAIR      74  63  66 E5        29.97S
CLARKSVILLE*   FAIR      75  63  64 NE5       29.96R
SOUTH HILL*    PTCLDY    72  67  84 N3        30.02S
LAWRENCEVILLE* FAIR      73  67  82 CALM      29.97R
EMPORIA*       PTCLDY    70  68  94 N3        29.97S
$$

VAZ088>098-260200-
SOUTHEAST VIRGINIA

CITY           SKY/WX    TMP DP  RH WIND       PRES   REMARKS
NORFOLK        CLOUDY    72  69  90 NE13      29.96R
VIRGINIA BEACH CLOUDY    71  67  87 NE14      29.94R
NORFOLK NAVAL  CLOUDY    73  67  81 NE13      29.97R
WEST POINT*    NOT AVBL
SALUDA*        FAIR      73  71  94 E6        29.98R
NEWPORT NEWS   CLOUDY    72  67  84 NE10G22   29.97R
LANGLEY AFB    MOCLDY    72  68  88 NE15      29.96R
FORT EUSTIS    CLOUDY    73  68  84 NE10G17   29.95R
WILLIAMSBURG*  CLEAR     73  70  88 CALM      29.98S
HR EXEC AP*    CLOUDY    72  68  87 NE10      29.97R
FRANKLIN*      CLOUDY    71  67  87 N6        29.96R
US460-WAKEFLD  CLEAR     71  69  93 NE5       29.97R
$$

VAZ020-022-025-037-045-260200-
WEST CENTRAL AND SOUTHWEST VIRGINIA

CITY           SKY/WX    TMP DP  RH WIND       PRES   REMARKS
STAUNTON*      CLOUDY    72  65  80 CALM      30.05S
WAYNESBORO*    CLOUDY    74  67  79 N7        30.04S
HOT SPRINGS VA CLOUDY    68  58  69 E3        30.17S
LYNCHBURG      PTCLDY    76  64  66 NE6       30.00R
DANVILLE       PTCLDY    72  65  78 N5        29.97R
SOUTH BOSTON*  FAIR      73  64  73 NE3       29.97R
MARTINSVILLE   PTCLDY    69  65  86 CALM      30.02R
ROANOKE        PTCLDY    76  65  68 E3        30.03R
BLACKSBURG     CLEAR     67  64  88 CALM      30.09S
DUBLIN*        CLEAR     72  63  73 N3        30.08S
MARION*        CLEAR     65  59  81 CALM      30.11S
HILLSVILLE*    CLEAR     68  59  73 CALM      30.09R
RICHLANDS*     FAIR      72  55  56 E5        30.10R
WISE*          PTCLDY    70  59  68 CALM      30.10R
ABINGDON*      CLEAR     74  58  59 E3        30.06R
$$

MDZ021>025-VAZ099-100-260200-
SOUTHERN MARYLAND AND THE DELMARVA PENINSULA

CITY           SKY/WX    TMP DP  RH WIND       PRES   REMARKS
PATUXENT RIVER MOCLDY    75  65  70 E9        29.99R
BAY BRIDGE APT PTCLDY    75  66  73 E5        29.99S
LEONARDTOWN    CLEAR     72  64  78 E3        30.01R
DOVER          PTCLDY    71  71 100 E8        30.00R
GEORGETOWN     CLOUDY    70  67  90 E9        30.02R
EASTON         CLEAR     73  64  73 E5        30.04R
CAMBRIDGE      CLEAR     72  66  83 NE3       30.00R
SALISBURY      CLOUDY    70  69  97 E6        30.01R
OCEAN CITY     CLOUDY    68  68 100 E8        30.01R
WALLOPS ISLAND CLOUDY    69  69 100 NE14      29.99S
ACCOMACK*      CLOUDY    70  68  93 E12G18    29.99R
$$

NCZ012>017-030>032-260200-
NORTH CENTRAL AND EASTERN NORTH CAROLINA

CITY           SKY/WX    TMP DP  RH WIND       PRES   REMARKS
ROANOKE RAPIDS FAIR      72  68  88 NE5       29.95R
RALEIGH        MOCLDY    74  68  81 NE9       29.95R
ELIZABETH CITY CLOUDY    72  71  97 N16       29.92S
AHOSKIE*       MOCLDY    71  67  89 N8        29.95R
EDENTON*       CLOUDY    73  69  86 CALM      29.92S
CURRITUCK*     CLOUDY    72  69  91 N14       29.93F
KILL DEVIL HLS CLOUDY    70  69  99 NE13G22   29.89S
MANTEO         CLOUDY    71  70  98 NE15G25   29.89F
CAPE HATTERAS  CLOUDY    76  75  97 NE14G25   29.83S
TARBORO*       NOT AVBL
GOLDSBORO      PTCLDY    76  73  91 NE8       29.90R
WASHINGTON     CLOUDY    74  69  82 NE10      29.91R
GREENVILLE     CLOUDY    73  68  83 N9        29.93S
NEW BERN       CLOUDY    74  71  91 N13       29.89R
WILMINGTON     CLOUDY    77  71  82 N9        29.86R
$$

VAZ048-260200-
ELSEWHERE

CITY           SKY/WX    TMP DP  RH WIND       PRES   REMARKS
HARRISBURG PA  CLOUDY    77  73  87 CALM      30.00S
BALTIMORE      CLOUDY    77  68  73 E7        29.99R
ANNAPOLIS      CLEAR     80  72  76 E7        29.99S
ANDREWS AFB    PTCLDY    75  67  76 SE6       29.99R
PHILADELPHIA   CLOUDY    75  65  70 SE5       30.02S
HENDERSON NC   CLEAR     72  63  72 NE5       29.96S
GREENSBORO     MOCLDY    75  66  73 NE6       29.97R
ROCKY MOUNT    PTCLDY    73  68  84 NE6       29.93R
$$

VAZ100-260200-
MARINE

STATION/POSITION TIME  TEMP    WIND        PRES    WAVE   SWELL
                       AIR SEA DIR/SP/G            HT/PER HT/PER
                 (UTC) (F)     (DEG/KT/KT) (MB)    (FT/S) (FT/S)
BRANDYWINE LGT   0048           90/ 14/ 15   N/A
CAPE MAY NJ      0048   69 75  100/  6/ 13 1015.8R
LEWES DE         0048           90/ 11/ 14   N/A
15NM E FENWICK I 0050   67 72   60/ 14/ 16 1016.4R   4/11   3/11
OCEAN-CITY-INLET 0048   68 75   90/  8/ 11 1016.6R
WACHAPREAGUE VA  0048   70 78   60/ 14/ 19 1015.4R
THOMAS POINT MD  0100   77 78  110/ 12/ 13   N/A
GOOSES REEF MD   0100   78 76  100/ 10/ 12 1016.4    0
COVE POINT MD    0048   76     110/  9/ 10 1016.2R
SOLOMONS ISLAND  0048           80/ 10/ 12   N/A
BISHOPS HEAD MD  0048   74 79   70/  9/ 11 1015.9R
PINEY POINT MD   0048           70/  2/  3   N/A
POTOMAC MD       0100   76 77  100/ 16/ 17 1014.9    1/ 3
CAMBRIDGE MD     0048   74 79              1016.8R
LEWISETTA VA     0048   77 79  100/ 14/ 15 1015.3R
RAPPAHANNOCK LGT 0048           60/ 13/ 15 1015.7R
STINGRAY PT      0100   73 77  100/ 14/ 16 1015.6    2/ 3
YORK RVR RNG VA  0048   73      80/ 15/ 17 1015.5R
YORKTOWN VA      0048   73 78   70/ 15/ 18 1014.7R
JAMESTOWN VA     0100      80   90/  4/  8   N/A     0
DOMINION TERM VA 0048   73      50/  8/ 13 1014.7R
KIPTOPEKE VA     0048      76   70/ 12/ 15   N/A
CHES BAY BRIDGE  0048   71 76   60/ 20/ 24 1014.1R
CAPE HENRY VA    0048   71      50/ 18/ 23   N/A
WILLOUBY STN VA  0048           60/ 17/ 19   N/A
S CRANEY ISL VA  0048   72      50/ 14/ 18 1014.2R
CAPE HENRY BUOY  0100      74                N/A     6/14   3/14
1ST LANDING BUOY 0100   72 76              1014.4    3/ 4
64NM E OF VA BCH 0050   71 70   50/ 17/ 21 1013.1F  16/15  15/15
DUCK PIER NC     0048   72 76   40/ 24/ 27 1012.2R
44100 DUCK FRF   0005      74                N/A     8/13   5/13
44056 DUCK FRF   0100      76                N/A     9/12   5/12
OREGON INLET NC  0048           30/ 19/ 26   N/A
HATTERAS NC      0048   75 77   40/ 16/ 22 1009.9S
DIAMOND SHLS NC  0050   76 78   30/ 25/ 31 1008.0F  16/15  15/15
CAPE LOOKOUT NC  0100   75      10/ 22/ 27 1009.3S
$$



USA.gov is the U.S. government's official web portal to all federal, state and local government web resources and services.